Simultaneous Nadir Overpasses (SNOs) Predictions

Prediction of SNOs between GOES-17 and NOAA-19 Satellite Orbit:

Table of predicted SNOs for the next 14.0 days since TLE Epoch: 11/23/2024
Index Date Time (GOES-17) GOES-17 Lat,Lon NOAA-19 Lat,Lon Distance(km) Time Diff (sec)
1 11/23/2024 04:32:06 -0.01,-104.67 -0.07,-104.80 16.94 80
2 11/24/2024 04:16:59 -0.01,-104.67 0.65,-101.78 329.23 80
3 11/26/2024 16:35:57 0.00,-104.73 0.39,-106.30 179.60 80
4 11/27/2024 16:26:08 0.00,-104.74 -0.31,-103.27 166.83 80
5 11/30/2024 04:45:12 0.01,-104.70 -0.72,-107.82 356.29 80
6 12/01/2024 04:32:43 0.01,-104.70 -0.03,-104.78 10.68 80
7 12/02/2024 04:17:35 0.01,-104.70 0.66,-101.75 335.27 80
8 12/04/2024 16:36:30 -0.00,-104.74 0.36,-106.26 174.01 80
9 12/05/2024 16:26:41 0.00,-104.74 -0.36,-103.23 172.31 80
